Tracking 29892 objects as of 21-Nov-2024
HD Live streaming from Space Station
objects crossing your sky now

CZ-6A DEB

Track CZ-6A DEB now!
10-day predictions


NORAD ID: 55868
Int'l Code: 2022-151ZQ
Perigee: 678.7 km
Apogee: 798.4 km
Inclination: 98.6 °
Period: 99.4 minutes
Semi major axis: 7109 km
RCS: Unknown
Launch date: November 11, 2022
Source: People's Republic of China (PRC)
Launch site: Taiyaun Space Center, China (TSC)

Note: This is SATELLITE DEBRIS
Your satellite tracking list
Your tracking list is empty




NASA's NSSDC Master Catalog

Two Line Element Set (TLE):
1 55868U 22151ZQ  24326.02664912  .00013409  00000-0  34427-2 0  9999
2 55868  98.6242 345.2616 0084215 269.5186  89.6356 14.48231636 94063
Source of the keplerian elements: AFSPC